Wetterdaten: Woche 08.12.14 - 14.12.14 (KW50)
Datum Zeit Temp. A. Feuchte A. Luftdruck Regen Wind Richtung Sonnenschein ET UV Solar Taupunkt Windchill Windben
08.12.2014 00:00 1,5 C 87 % 1018,9 hPa 0,0 l/m 7,7 km/h (2 Bft) W-SW 0,00 h 0,025 mm 0,0 UV-I 0 W/m -0,4 C -0,1 C 12,7 km/h (3 Bft)
08.12.2014 01:00 1,3 C 91 % 1018,8 hPa 0,0 l/m 6,4 km/h (2 Bft) W-SW 0,00 h 0,000 mm 0,0 UV-I 0 W/m -0,1 C 0,4 C 11,0 km/h (2 Bft)
08.12.2014 02:00 0,8 C 94 % 1018,7 hPa 0,0 l/m 5,5 km/h (2 Bft) W-SW 0,00 h 0,000 mm 0,0 UV-I 0 W/m 0,0 C 0,2 C 9,1 km/h (2 Bft)
08.12.2014 03:00 0,8 C 95 % 1018,5 hPa 0,0 l/m 2,7 km/h (1 Bft) W-SW 0,00 h 0,000 mm 0,0 UV-I 0 W/m 0,1 C 0,8 C 5,7 km/h (2 Bft)
08.12.2014 04:00 0,8 C 96 % 1018,5 hPa 0,0 l/m 4,9 km/h (1 Bft) W-SW 0,00 h 0,000 mm 0,0 UV-I 0 W/m 0,2 C 0,4 C 8,8 km/h (2 Bft)
08.12.2014 05:00 0,9 C 96 % 1018,8 hPa 0,0 l/m 7,6 km/h (2 Bft) W-SW 0,00 h 0,000 mm 0,0 UV-I 0 W/m 0,4 C -0,5 C 11,9 km/h (2 Bft)
08.12.2014 06:00 1,0 C 97 % 1019,0 hPa 0,0 l/m 7,2 km/h (2 Bft) W-SW 0,00 h 0,000 mm 0,0 UV-I 0 W/m 0,6 C -0,2 C 11,6 km/h (2 Bft)
08.12.2014 07:00 1,1 C 97 % 1019,5 hPa 0,0 l/m 3,7 km/h (1 Bft) W-SW 0,00 h 0,000 mm 0,0 UV-I 0 W/m 0,7 C 1,0 C 6,6 km/h (2 Bft)
08.12.2014 08:00 1,3 C 97 % 1020,0 hPa 0,0 l/m 4,2 km/h (1 Bft) W-SW 0,00 h 0,000 mm 0,0 UV-I 9 W/m 0,9 C 1,3 C 7,1 km/h (2 Bft)
08.12.2014 09:00 1,5 C 97 % 1020,3 hPa 0,0 l/m 4,2 km/h (1 Bft) W-SW 0,00 h 0,000 mm 0,0 UV-I 20 W/m 1,0 C 1,5 C 7,1 km/h (2 Bft)
08.12.2014 10:00 1,7 C 95 % 1020,3 hPa 0,0 l/m 6,0 km/h (2 Bft) W-SW 0,57 h 0,000 mm 0,5 UV-I 56 W/m 1,0 C 1,0 C 9,9 km/h (2 Bft)
08.12.2014 11:00 2,0 C 92 % 1020,1 hPa 0,0 l/m 5,9 km/h (2 Bft) W-SW 1,00 h 0,025 mm 0,5 UV-I 84 W/m 0,9 C 1,4 C 9,4 km/h (2 Bft)
08.12.2014 12:00 2,4 C 89 % 1019,9 hPa 0,0 l/m 4,1 km/h (1 Bft) W-SW 0,62 h 0,025 mm 0,5 UV-I 93 W/m 0,8 C 2,2 C 7,2 km/h (2 Bft)
08.12.2014 13:00 2,8 C 85 % 1019,6 hPa 0,0 l/m 5,1 km/h (1 Bft) W-NW 0,85 h 0,025 mm 0,5 UV-I 153 W/m 0,5 C 2,5 C 8,6 km/h (2 Bft)
08.12.2014 14:00 2,8 C 81 % 1019,4 hPa 0,0 l/m 6,4 km/h (2 Bft) W-SW 0,88 h 0,051 mm 0,5 UV-I 76 W/m -0,2 C 1,8 C 10,6 km/h (2 Bft)
08.12.2014 15:00 2,4 C 83 % 1019,3 hPa 0,0 l/m 2,1 km/h (1 Bft) W 0,27 h 0,051 mm 0,0 UV-I 40 W/m -0,3 C 2,4 C 4,1 km/h (1 Bft)
08.12.2014 16:00 1,4 C 87 % 1019,2 hPa 0,0 l/m 0,1 km/h (0 Bft) W 0,00 h 0,025 mm 0,0 UV-I 7 W/m -0,6 C 1,4 C 0,9 km/h (0 Bft)
08.12.2014 17:00 0,2 C 90 % 1019,4 hPa 0,0 l/m 0,0 km/h (0 Bft) N 0,00 h 0,000 mm 0,0 UV-I 0 W/m -1,2 C 0,2 C 0,3 km/h (0 Bft)
08.12.2014 18:00 -0,8 C 91 % 1019,5 hPa 0,0 l/m 0,9 km/h (0 Bft) N 0,00 h 0,000 mm 0,0 UV-I 0 W/m -2,0 C -0,8 C 1,9 km/h (1 Bft)
08.12.2014 19:00 -1,5 C 93 % 1019,6 hPa 0,0 l/m 0,6 km/h (0 Bft) N 0,00 h 0,000 mm 0,0 UV-I 0 W/m -2,5 C -1,5 C 1,5 km/h (1 Bft)
08.12.2014 20:00 -2,1 C 94 % 1019,7 hPa 0,0 l/m 0,1 km/h (0 Bft) N 0,00 h 0,000 mm 0,0 UV-I 0 W/m -2,9 C -2,1 C 0,4 km/h (0 Bft)
08.12.2014 21:00 -2,6 C 94 % 1020,1 hPa 0,0 l/m 0,1 km/h (0 Bft) N 0,00 h 0,000 mm 0,0 UV-I 0 W/m -3,4 C -2,6 C 0,3 km/h (0 Bft)
08.12.2014 22:00 -2,4 C 95 % 1020,5 hPa 0,0 l/m 0,0 km/h (0 Bft) N 0,00 h 0,000 mm 0,0 UV-I 0 W/m -3,1 C -2,4 C 0,1 km/h (0 Bft)
08.12.2014 23:00 -2,6 C 95 % 1020,7 hPa 0,0 l/m 0,1 km/h (0 Bft) N 0,00 h 0,000 mm 0,0 UV-I 0 W/m -3,3 C -2,6 C 0,3 km/h (0 Bft)
09.12.2014 00:00 -2,1 C 96 % 1021,0 hPa 0,0 l/m 0,0 km/h (0 Bft) N 0,00 h 0,000 mm 0,0 UV-I 0 W/m -2,6 C -2,1 C 0,3 km/h (0 Bft)
09.12.2014 01:00 -1,4 C 97 % 1021,3 hPa 0,0 l/m 0,6 km/h (0 Bft) W 0,00 h 0,000 mm 0,0 UV-I 0 W/m -1,8 C -1,4 C 1,9 km/h (1 Bft)
09.12.2014 02:00 -1,2 C 97 % 1021,8 hPa 0,0 l/m 0,7 km/h (0 Bft) N 0,00 h 0,000 mm 0,0 UV-I 0 W/m -1,6 C -1,2 C 1,5 km/h (1 Bft)
09.12.2014 03:00 -1,3 C 97 % 1022,4 hPa 0,0 l/m 0,9 km/h (0 Bft) W-NW 0,00 h 0,000 mm 0,0 UV-I 0 W/m -1,7 C -1,3 C 2,4 km/h (1 Bft)
09.12.2014 04:00 -1,5 C 97 % 1023,1 hPa 0,0 l/m 0,5 km/h (0 Bft) N 0,00 h 0,000 mm 0,0 UV-I 0 W/m -1,9 C -1,5 C 1,4 km/h (1 Bft)
09.12.2014 05:00 -1,4 C 97 % 1023,7 hPa 0,0 l/m 0,2 km/h (0 Bft) N 0,00 h 0,000 mm 0,0 UV-I 0 W/m -1,8 C -1,4 C 1,0 km/h (0 Bft)
09.12.2014 06:00 -1,5 C 97 % 1024,6 hPa 0,0 l/m 0,5 km/h (0 Bft) N 0,00 h 0,000 mm 0,0 UV-I 0 W/m -2,0 C -1,5 C 1,4 km/h (1 Bft)
09.12.2014 07:00 -1,8 C 97 % 1025,5 hPa 0,0 l/m 1,0 km/h (0 Bft) N 0,00 h 0,000 mm 0,0 UV-I 0 W/m -2,2 C -1,8 C 2,4 km/h (1 Bft)
09.12.2014 08:00 -1,8 C 97 % 1026,6 hPa 0,0 l/m 1,3 km/h (1 Bft) NW 0,00 h 0,000 mm 0,0 UV-I 11 W/m -2,2 C -1,8 C 3,4 km/h (1 Bft)
09.12.2014 09:00 -1,9 C 97 % 1027,5 hPa 0,0 l/m 0,4 km/h (0 Bft) N 0,00 h 0,000 mm 0,0 UV-I 32 W/m -2,3 C -1,9 C 1,0 km/h (0 Bft)
09.12.2014 10:00 -1,7 C 97 % 1028,2 hPa 0,0 l/m 0,5 km/h (0 Bft) N 0,67 h 0,000 mm 0,0 UV-I 53 W/m -2,1 C -1,7 C 1,5 km/h (1 Bft)
09.12.2014 11:00 -1,6 C 97 % 1028,5 hPa 0,0 l/m 0,3 km/h (0 Bft) N-NW 1,00 h 0,025 mm 0,0 UV-I 68 W/m -2,0 C -1,6 C 1,3 km/h (1 Bft)
09.12.2014 12:00 -1,6 C 97 % 1028,9 hPa 0,0 l/m 0,9 km/h (0 Bft) N-NW 1,00 h 0,025 mm 0,0 UV-I 59 W/m -2,0 C -1,6 C 2,2 km/h (1 Bft)
09.12.2014 13:00 -1,6 C 97 % 1029,3 hPa 0,0 l/m 1,0 km/h (0 Bft) N-NW 0,40 h 0,025 mm 0,0 UV-I 47 W/m -2,1 C -1,6 C 2,3 km/h (1 Bft)
09.12.2014 14:00 -1,6 C 97 % 1029,7 hPa 0,0 l/m 0,8 km/h (0 Bft) NW 0,00 h 0,025 mm 0,0 UV-I 29 W/m -2,0 C -1,6 C 2,0 km/h (1 Bft)
09.12.2014 15:00 -1,6 C 97 % 1030,1 hPa 0,0 l/m 0,3 km/h (0 Bft) NW 0,00 h 0,000 mm 0,0 UV-I 10 W/m -2,0 C -1,6 C 1,5 km/h (1 Bft)
09.12.2014 16:00 -1,8 C 97 % 1030,6 hPa 0,0 l/m 1,4 km/h (1 Bft) NW 0,00 h 0,000 mm 0,0 UV-I 0 W/m -2,2 C -1,8 C 2,6 km/h (1 Bft)
09.12.2014 17:00 -2,2 C 97 % 1031,4 hPa 0,0 l/m 1,8 km/h (1 Bft) SW 0,00 h 0,000 mm 0,0 UV-I 0 W/m -2,6 C -2,2 C 3,9 km/h (1 Bft)
09.12.2014 18:00 -2,2 C 97 % 1031,7 hPa 0,0 l/m 3,1 km/h (1 Bft) W-SW 0,00 h 0,000 mm 0,0 UV-I 0 W/m -2,6 C -2,4 C 5,9 km/h (2 Bft)
09.12.2014 19:00 -2,1 C 97 % 1031,7 hPa 0,0 l/m 2,6 km/h (1 Bft) S 0,00 h 0,000 mm 0,0 UV-I 0 W/m -2,5 C -2,1 C 4,6 km/h (1 Bft)
09.12.2014 20:00 -1,9 C 96 % 1032,0 hPa 0,0 l/m 2,1 km/h (1 Bft) S 0,00 h 0,000 mm 0,0 UV-I 0 W/m -2,4 C -1,9 C 4,3 km/h (1 Bft)
09.12.2014 21:00 -1,8 C 95 % 1032,1 hPa 0,0 l/m 3,1 km/h (1 Bft) SW 0,00 h 0,000 mm 0,0 UV-I 0 W/m -2,5 C -1,9 C 6,0 km/h (2 Bft)
09.12.2014 22:00 -2,0 C 95 % 1031,5 hPa 0,0 l/m 3,3 km/h (1 Bft) S 0,00 h 0,000 mm 0,0 UV-I 0 W/m -2,7 C -2,0 C 6,0 km/h (2 Bft)
09.12.2014 23:00 -2,1 C 95 % 1031,4 hPa 0,0 l/m 4,7 km/h (1 Bft) S 0,00 h 0,000 mm 0,0 UV-I 0 W/m -2,8 C -2,3 C 8,3 km/h (2 Bft)
10.12.2014 00:00 -2,1 C 96 % 1030,9 hPa 0,0 l/m 4,5 km/h (1 Bft) S 0,00 h 0,000 mm 0,0 UV-I 0 W/m -2,6 C -2,3 C 7,9 km/h (2 Bft)
10.12.2014 01:00 -1,9 C 95 % 1030,7 hPa 0,0 l/m 4,5 km/h (1 Bft) S 0,00 h 0,000 mm 0,0 UV-I 0 W/m -2,6 C -2,3 C 7,5 km/h (2 Bft)
10.12.2014 02:00 -1,8 C 94 % 1030,2 hPa 0,0 l/m 6,2 km/h (2 Bft) S 0,00 h 0,000 mm 0,0 UV-I 0 W/m -2,6 C -2,7 C 10,6 km/h (2 Bft)
10.12.2014 03:00 -1,7 C 94 % 1029,7 hPa 0,0 l/m 7,1 km/h (2 Bft) S 0,00 h 0,000 mm 0,0 UV-I 0 W/m -2,5 C -2,8 C 11,2 km/h (2 Bft)
10.12.2014 04:00 -1,7 C 94 % 1028,7 hPa 0,0 l/m 8,6 km/h (2 Bft) S 0,00 h 0,000 mm 0,0 UV-I 0 W/m -2,6 C -4,0 C 13,1 km/h (3 Bft)
10.12.2014 05:00 -1,8 C 94 % 1028,3 hPa 0,0 l/m 9,4 km/h (2 Bft) S 0,00 h 0,000 mm 0,0 UV-I 0 W/m -2,7 C -4,7 C 14,8 km/h (3 Bft)
10.12.2014 06:00 -1,9 C 94 % 1027,7 hPa 0,0 l/m 10,0 km/h (2 Bft) S 0,00 h 0,000 mm 0,0 UV-I 0 W/m -2,7 C -5,4 C 15,6 km/h (3 Bft)
10.12.2014 07:00 -1,9 C 94 % 1027,2 hPa 0,0 l/m 11,5 km/h (2 Bft) S 0,00 h 0,000 mm 0,0 UV-I 0 W/m -2,7 C -6,6 C 18,3 km/h (3 Bft)
10.12.2014 08:00 -1,9 C 94 % 1026,5 hPa 0,0 l/m 11,3 km/h (2 Bft) S 0,00 h 0,000 mm 0,0 UV-I 20 W/m -2,7 C -6,4 C 17,6 km/h (3 Bft)
10.12.2014 09:00 -1,8 C 93 % 1025,8 hPa 0,0 l/m 13,1 km/h (3 Bft) S 0,00 h 0,000 mm 0,0 UV-I 22 W/m -2,8 C -7,6 C 20,1 km/h (4 Bft)
10.12.2014 10:00 -1,7 C 92 % 1025,4 hPa 0,0 l/m 10,8 km/h (2 Bft) S 0,00 h 0,025 mm 0,0 UV-I 28 W/m -2,8 C -5,8 C 16,7 km/h (3 Bft)
10.12.2014 11:00 -1,7 C 92 % 1024,5 hPa 0,0 l/m 12,2 km/h (2 Bft) S 0,00 h 0,025 mm 0,0 UV-I 31 W/m -2,8 C -6,8 C 18,9 km/h (3 Bft)
10.12.2014 12:00 -1,6 C 92 % 1023,1 hPa 0,0 l/m 11,3 km/h (2 Bft) S 0,00 h 0,026 mm 0,0 UV-I 27 W/m -2,7 C -6,2 C 17,6 km/h (3 Bft)
10.12.2014 13:00 -1,2 C 92 % 1022,2 hPa 0,0 l/m 9,8 km/h (2 Bft) S 0,20 h 0,025 mm 0,0 UV-I 39 W/m -2,3 C -4,5 C 15,3 km/h (3 Bft)
10.12.2014 14:00 -0,8 C 92 % 1021,7 hPa 0,0 l/m 8,1 km/h (2 Bft) S 0,00 h 0,025 mm 0,0 UV-I 22 W/m -1,9 C -2,9 C 13,9 km/h (3 Bft)
10.12.2014 15:00 -0,8 C 94 % 1021,4 hPa 0,0 l/m 5,7 km/h (2 Bft) S-SO 0,00 h 0,000 mm 0,0 UV-I 9 W/m -1,5 C -1,3 C 9,2 km/h (2 Bft)
10.12.2014 16:00 -0,6 C 95 % 1021,3 hPa 0,0 l/m 6,4 km/h (2 Bft) S 0,00 h 0,000 mm 0,0 UV-I 0 W/m -1,2 C -1,8 C 10,7 km/h (2 Bft)
10.12.2014 17:00 -0,5 C 96 % 1021,0 hPa 0,0 l/m 5,7 km/h (2 Bft) S 0,00 h 0,000 mm 0,0 UV-I 0 W/m -1,0 C -0,8 C 9,3 km/h (2 Bft)
10.12.2014 18:00 -0,3 C 96 % 1020,8 hPa 0,0 l/m 4,4 km/h (1 Bft) S 0,00 h 0,000 mm 0,0 UV-I 0 W/m -0,8 C -0,3 C 8,3 km/h (2 Bft)
10.12.2014 19:00 -0,0 C 97 % 1020,5 hPa 0,0 l/m 4,7 km/h (1 Bft) S 0,00 h 0,000 mm 0,0 UV-I 0 W/m -0,4 C -0,2 C 8,1 km/h (2 Bft)
10.12.2014 20:00 0,3 C 97 % 1020,2 hPa 0,0 l/m 6,9 km/h (2 Bft) S 0,00 h 0,000 mm 0,0 UV-I 0 W/m -0,2 C -0,9 C 11,2 km/h (2 Bft)
10.12.2014 21:00 0,4 C 97 % 1020,1 hPa 0,0 l/m 5,2 km/h (1 Bft) S-SW 0,00 h 0,001 mm 0,0 UV-I 0 W/m -0,0 C -0,0 C 8,8 km/h (2 Bft)
10.12.2014 22:00 0,5 C 97 % 1020,2 hPa 0,0 l/m 1,9 km/h (1 Bft) W-SW 0,00 h 0,000 mm 0,0 UV-I 0 W/m 0,1 C 0,5 C 4,5 km/h (1 Bft)
10.12.2014 23:00 0,6 C 98 % 1019,6 hPa 0,0 l/m 3,1 km/h (1 Bft) S 0,00 h 0,000 mm 0,0 UV-I 0 W/m 0,3 C 0,6 C 5,3 km/h (1 Bft)
11.12.2014 00:00 0,8 C 98 % 1019,2 hPa 0,0 l/m 2,9 km/h (1 Bft) S-SW 0,00 h 0,000 mm 0,0 UV-I 0 W/m 0,5 C 0,7 C 5,6 km/h (2 Bft)
11.12.2014 01:00 1,0 C 98 % 1018,9 hPa 0,0 l/m 5,2 km/h (1 Bft) S-SW 0,00 h 0,000 mm 0,0 UV-I 0 W/m 0,7 C 0,6 C 8,8 km/h (2 Bft)
11.12.2014 02:00 1,3 C 98 % 1018,5 hPa 0,4 l/m 3,8 km/h (1 Bft) SW 0,00 h 0,000 mm 0,0 UV-I 0 W/m 1,1 C 1,1 C 6,8 km/h (2 Bft)
11.12.2014 03:00 1,6 C 98 % 1017,6 hPa 0,0 l/m 5,0 km/h (1 Bft) S 0,00 h 0,000 mm 0,0 UV-I 0 W/m 1,3 C 1,3 C 8,7 km/h (2 Bft)
11.12.2014 04:00 1,7 C 98 % 1016,7 hPa 0,0 l/m 6,6 km/h (2 Bft) S 0,00 h 0,000 mm 0,0 UV-I 0 W/m 1,4 C 0,9 C 10,9 km/h (2 Bft)
11.12.2014 05:00 1,7 C 98 % 1016,3 hPa 0,0 l/m 7,1 km/h (2 Bft) S 0,00 h 0,000 mm 0,0 UV-I 0 W/m 1,5 C 0,5 C 11,5 km/h (2 Bft)
11.12.2014 06:00 1,8 C 98 % 1015,9 hPa 0,2 l/m 7,7 km/h (2 Bft) S 0,00 h 0,000 mm 0,0 UV-I 0 W/m 1,6 C 0,4 C 11,7 km/h (2 Bft)
11.12.2014 07:00 2,1 C 98 % 1015,8 hPa 0,0 l/m 6,6 km/h (2 Bft) SW 0,00 h 0,000 mm 0,0 UV-I 0 W/m 1,8 C 1,3 C 10,7 km/h (2 Bft)
11.12.2014 08:00 2,4 C 98 % 1015,7 hPa 0,0 l/m 7,3 km/h (2 Bft) S 0,00 h 0,000 mm 0,0 UV-I 9 W/m 2,1 C 1,1 C 11,9 km/h (2 Bft)
11.12.2014 09:00 2,5 C 97 % 1015,5 hPa 0,6 l/m 9,8 km/h (2 Bft) SW 0,00 h 0,000 mm 0,0 UV-I 21 W/m 2,1 C -0,4 C 15,2 km/h (3 Bft)
11.12.2014 10:00 2,9 C 97 % 1015,4 hPa 0,2 l/m 10,4 km/h (2 Bft) W-SW 0,42 h 0,000 mm 0,5 UV-I 51 W/m 2,4 C -0,4 C 16,2 km/h (3 Bft)
11.12.2014 11:00 3,1 C 96 % 1014,6 hPa 0,0 l/m 11,7 km/h (2 Bft) S 0,02 h 0,025 mm 0,0 UV-I 29 W/m 2,5 C -1,0 C 18,2 km/h (3 Bft)
11.12.2014 12:00 3,4 C 95 % 1013,6 hPa 0,2 l/m 10,5 km/h (2 Bft) W-SW 0,05 h 0,025 mm 0,0 UV-I 35 W/m 2,7 C -0,0 C 17,2 km/h (3 Bft)
11.12.2014 13:00 3,7 C 94 % 1012,8 hPa 0,0 l/m 13,3 km/h (3 Bft) S-SW 0,00 h 0,025 mm 0,0 UV-I 39 W/m 2,8 C -1,4 C 22,0 km/h (4 Bft)
11.12.2014 14:00 3,7 C 94 % 1012,3 hPa 0,2 l/m 12,7 km/h (3 Bft) SW 0,03 h 0,025 mm 0,0 UV-I 33 W/m 2,8 C -1,0 C 20,7 km/h (4 Bft)
11.12.2014 15:00 3,7 C 94 % 1012,1 hPa 0,8 l/m 10,6 km/h (2 Bft) W-SW 0,00 h 0,025 mm 0,0 UV-I 8 W/m 2,8 C 0,3 C 17,3 km/h (3 Bft)
11.12.2014 16:00 3,3 C 94 % 1012,0 hPa 1,4 l/m 11,7 km/h (2 Bft) W-SW 0,00 h 0,000 mm 0,0 UV-I 0 W/m 2,5 C -0,9 C 18,3 km/h (3 Bft)
11.12.2014 17:00 2,4 C 96 % 1011,9 hPa 1,0 l/m 7,6 km/h (2 Bft) SW 0,00 h 0,000 mm 0,0 UV-I 0 W/m 1,7 C 0,8 C 12,6 km/h (3 Bft)
11.12.2014 18:00 2,9 C 96 % 1011,8 hPa 1,2 l/m 12,4 km/h (2 Bft) SW 0,00 h 0,000 mm 0,0 UV-I 0 W/m 2,3 C -1,8 C 19,4 km/h (3 Bft)
11.12.2014 19:00 2,7 C 96 % 1011,8 hPa 1,4 l/m 10,7 km/h (2 Bft) W-SW 0,00 h 0,000 mm 0,0 UV-I 0 W/m 2,1 C -0,8 C 16,1 km/h (3 Bft)
11.12.2014 20:00 2,0 C 96 % 1012,2 hPa 2,2 l/m 13,9 km/h (3 Bft) W-SW 0,00 h 0,000 mm 0,0 UV-I 0 W/m 1,4 C -3,5 C 21,2 km/h (4 Bft)
11.12.2014 21:00 2,6 C 95 % 1012,8 hPa 0,2 l/m 11,6 km/h (2 Bft) W-SW 0,00 h 0,000 mm 0,0 UV-I 0 W/m 1,9 C -1,3 C 17,6 km/h (3 Bft)
11.12.2014 22:00 2,8 C 95 % 1013,6 hPa 0,0 l/m 9,2 km/h (2 Bft) W-SW 0,00 h 0,000 mm 0,0 UV-I 0 W/m 2,1 C 0,3 C 14,4 km/h (3 Bft)
11.12.2014 23:00 3,0 C 95 % 1013,9 hPa 0,4 l/m 7,5 km/h (2 Bft) W 0,00 h 0,000 mm 0,0 UV-I 0 W/m 2,3 C 1,6 C 12,5 km/h (2 Bft)
12.12.2014 00:00 2,6 C 95 % 1013,9 hPa 0,0 l/m 8,4 km/h (2 Bft) SW 0,00 h 0,000 mm 0,0 UV-I 0 W/m 1,9 C 0,7 C 13,4 km/h (3 Bft)
12.12.2014 01:00 2,6 C 96 % 1013,9 hPa 0,0 l/m 7,2 km/h (2 Bft) W-SW 0,00 h 0,000 mm 0,0 UV-I 0 W/m 2,0 C 1,1 C 11,7 km/h (2 Bft)
12.12.2014 02:00 3,2 C 96 % 1013,9 hPa 0,2 l/m 11,0 km/h (2 Bft) S-SW 0,00 h 0,000 mm 0,0 UV-I 0 W/m 2,7 C -0,4 C 17,4 km/h (3 Bft)
12.12.2014 03:00 3,5 C 96 % 1013,5 hPa 0,2 l/m 10,9 km/h (2 Bft) S 0,00 h 0,000 mm 0,0 UV-I 0 W/m 3,0 C -0,1 C 17,8 km/h (3 Bft)
12.12.2014 04:00 3,6 C 96 % 1013,0 hPa 0,0 l/m 13,7 km/h (3 Bft) S-SW 0,00 h 0,000 mm 0,0 UV-I 0 W/m 3,0 C -1,7 C 21,0 km/h (4 Bft)
12.12.2014 05:00 3,9 C 96 % 1012,7 hPa 0,0 l/m 13,3 km/h (3 Bft) S-SW 0,00 h 0,000 mm 0,0 UV-I 0 W/m 3,3 C -1,2 C 20,3 km/h (4 Bft)
12.12.2014 06:00 4,1 C 94 % 1012,4 hPa 0,0 l/m 14,0 km/h (3 Bft) S-SW 0,00 h 0,000 mm 0,0 UV-I 0 W/m 3,2 C -1,4 C 22,4 km/h (4 Bft)
12.12.2014 07:00 4,1 C 93 % 1011,5 hPa 0,0 l/m 13,1 km/h (3 Bft) S 0,00 h 0,000 mm 0,0 UV-I 0 W/m 3,0 C -0,8 C 20,7 km/h (4 Bft)
12.12.2014 08:00 3,4 C 93 % 1010,9 hPa 0,2 l/m 15,3 km/h (3 Bft) S 0,00 h 0,000 mm 0,0 UV-I 18 W/m 2,4 C -2,8 C 23,4 km/h (4 Bft)
12.12.2014 09:00 3,4 C 93 % 1010,7 hPa 0,0 l/m 17,7 km/h (3 Bft) S 0,48 h 0,025 mm 0,0 UV-I 62 W/m 2,4 C -4,1 C 26,7 km/h (4 Bft)
12.12.2014 10:00 3,9 C 92 % 1010,3 hPa 0,0 l/m 15,9 km/h (3 Bft) S 1,00 h 0,025 mm 0,6 UV-I 116 W/m 2,6 C -2,6 C 23,3 km/h (4 Bft)
12.12.2014 11:00 4,3 C 91 % 1009,5 hPa 0,0 l/m 14,6 km/h (3 Bft) S 1,00 h 0,051 mm 0,7 UV-I 153 W/m 2,9 C -1,3 C 21,4 km/h (4 Bft)
12.12.2014 12:00 4,9 C 89 % 1008,4 hPa 0,0 l/m 15,1 km/h (3 Bft) S 1,00 h 0,076 mm 0,6 UV-I 159 W/m 3,2 C -0,9 C 22,7 km/h (4 Bft)
12.12.2014 13:00 5,6 C 85 % 1007,3 hPa 0,0 l/m 13,8 km/h (3 Bft) S 1,00 h 0,076 mm 0,6 UV-I 108 W/m 3,2 C 0,7 C 22,1 km/h (4 Bft)
12.12.2014 14:00 6,0 C 82 % 1007,1 hPa 0,0 l/m 12,3 km/h (2 Bft) SW 0,22 h 0,051 mm 0,0 UV-I 37 W/m 3,1 C 1,8 C 19,4 km/h (3 Bft)
12.12.2014 15:00 5,9 C 81 % 1007,0 hPa 0,0 l/m 14,9 km/h (3 Bft) S-SW 0,00 h 0,025 mm 0,0 UV-I 16 W/m 2,8 C 0,3 C 23,1 km/h (4 Bft)
12.12.2014 16:00 5,7 C 81 % 1006,6 hPa 0,0 l/m 13,8 km/h (3 Bft) S 0,00 h 0,025 mm 0,0 UV-I 0 W/m 2,7 C 0,7 C 21,7 km/h (4 Bft)
12.12.2014 17:00 5,9 C 80 % 1006,3 hPa 0,0 l/m 12,6 km/h (2 Bft) S 0,00 h 0,025 mm 0,0 UV-I 0 W/m 2,8 C 1,6 C 19,5 km/h (3 Bft)
12.12.2014 18:00 6,1 C 80 % 1005,9 hPa 0,0 l/m 13,9 km/h (3 Bft) S-SW 0,00 h 0,025 mm 0,0 UV-I 0 W/m 2,9 C 1,1 C 21,5 km/h (4 Bft)
12.12.2014 19:00 6,6 C 78 % 1006,0 hPa 0,0 l/m 15,9 km/h (3 Bft) S-SW 0,00 h 0,025 mm 0,0 UV-I 0 W/m 3,1 C 0,7 C 24,9 km/h (4 Bft)
12.12.2014 20:00 6,7 C 79 % 1006,0 hPa 0,0 l/m 12,7 km/h (3 Bft) S 0,00 h 0,025 mm 0,0 UV-I 0 W/m 3,3 C 2,4 C 19,5 km/h (3 Bft)
12.12.2014 21:00 6,9 C 80 % 1006,0 hPa 0,0 l/m 14,0 km/h (3 Bft) S 0,00 h 0,025 mm 0,0 UV-I 0 W/m 3,6 C 2,0 C 22,1 km/h (4 Bft)
12.12.2014 22:00 7,3 C 79 % 1006,2 hPa 0,0 l/m 13,4 km/h (3 Bft) S-SW 0,00 h 0,025 mm 0,0 UV-I 0 W/m 3,9 C 2,8 C 21,1 km/h (4 Bft)
12.12.2014 23:00 7,6 C 79 % 1006,4 hPa 0,0 l/m 12,8 km/h (3 Bft) S-SW 0,00 h 0,025 mm 0,0 UV-I 0 W/m 4,2 C 3,4 C 19,9 km/h (4 Bft)
13.12.2014 00:00 7,8 C 79 % 1006,5 hPa 0,0 l/m 11,9 km/h (2 Bft) W-SW 0,00 h 0,025 mm 0,0 UV-I 0 W/m 4,3 C 4,1 C 19,4 km/h (3 Bft)
13.12.2014 01:00 7,6 C 79 % 1006,8 hPa 0,0 l/m 12,0 km/h (2 Bft) S-SW 0,00 h 0,025 mm 0,0 UV-I 0 W/m 4,2 C 3,8 C 18,0 km/h (3 Bft)
13.12.2014 02:00 7,6 C 79 % 1007,2 hPa 0,0 l/m 11,5 km/h (2 Bft) S-SW 0,00 h 0,025 mm 0,0 UV-I 0 W/m 4,3 C 4,2 C 17,9 km/h (3 Bft)
13.12.2014 03:00 7,9 C 78 % 1007,8 hPa 0,0 l/m 11,2 km/h (2 Bft) S 0,00 h 0,025 mm 0,0 UV-I 0 W/m 4,4 C 4,7 C 17,4 km/h (3 Bft)
13.12.2014 04:00 8,2 C 78 % 1007,9 hPa 0,0 l/m 10,3 km/h (2 Bft) SW 0,00 h 0,000 mm 0,0 UV-I 0 W/m 4,7 C 5,6 C 16,6 km/h (3 Bft)
13.12.2014 05:00 7,8 C 79 % 1008,3 hPa 0,0 l/m 9,9 km/h (2 Bft) S-SW 0,00 h 0,025 mm 0,0 UV-I 0 W/m 4,3 C 5,3 C 16,5 km/h (3 Bft)
13.12.2014 06:00 7,0 C 81 % 1009,0 hPa 0,0 l/m 9,1 km/h (2 Bft) W-SW 0,00 h 0,025 mm 0,0 UV-I 0 W/m 3,8 C 4,9 C 14,8 km/h (3 Bft)
13.12.2014 07:00 6,8 C 80 % 1009,5 hPa 0,0 l/m 8,5 km/h (2 Bft) S-SW 0,00 h 0,025 mm 0,0 UV-I 0 W/m 3,7 C 5,2 C 13,5 km/h (3 Bft)
13.12.2014 08:00 7,0 C 78 % 1010,1 hPa 0,0 l/m 9,7 km/h (2 Bft) S-SW 0,00 h 0,025 mm 0,0 UV-I 11 W/m 3,5 C 4,5 C 15,5 km/h (3 Bft)
13.12.2014 09:00 7,3 C 77 % 1010,5 hPa 0,0 l/m 10,3 km/h (2 Bft) S-SW 0,70 h 0,025 mm 0,0 UV-I 65 W/m 3,5 C 4,4 C 16,1 km/h (3 Bft)
13.12.2014 10:00 7,6 C 75 % 1011,1 hPa 0,0 l/m 9,5 km/h (2 Bft) S-SW 1,00 h 0,051 mm 0,5 UV-I 102 W/m 3,5 C 5,3 C 15,1 km/h (3 Bft)
13.12.2014 11:00 8,2 C 73 % 1010,9 hPa 0,0 l/m 7,4 km/h (2 Bft) SW 1,00 h 0,076 mm 0,7 UV-I 195 W/m 3,5 C 6,9 C 12,1 km/h (2 Bft)
13.12.2014 12:00 8,9 C 71 % 1010,7 hPa 0,0 l/m 8,5 km/h (2 Bft) SW 1,00 h 0,102 mm 0,6 UV-I 137 W/m 3,8 C 7,4 C 13,5 km/h (3 Bft)
13.12.2014 13:00 9,0 C 71 % 1010,7 hPa 0,0 l/m 7,8 km/h (2 Bft) S 0,62 h 0,076 mm 0,0 UV-I 59 W/m 3,9 C 7,8 C 12,2 km/h (2 Bft)
13.12.2014 14:00 9,2 C 71 % 1010,9 hPa 0,0 l/m 6,5 km/h (2 Bft) SW 0,07 h 0,051 mm 0,0 UV-I 31 W/m 4,2 C 8,6 C 10,5 km/h (2 Bft)
13.12.2014 15:00 9,1 C 71 % 1011,3 hPa 0,0 l/m 8,8 km/h (2 Bft) SW 0,00 h 0,025 mm 0,0 UV-I 15 W/m 4,1 C 7,3 C 14,1 km/h (3 Bft)
13.12.2014 16:00 8,1 C 76 % 1012,0 hPa 0,0 l/m 4,4 km/h (1 Bft) SW 0,00 h 0,025 mm 0,0 UV-I 0 W/m 4,1 C 8,1 C 7,7 km/h (2 Bft)
13.12.2014 17:00 7,8 C 78 % 1012,5 hPa 0,0 l/m 4,8 km/h (1 Bft) SW 0,00 h 0,025 mm 0,0 UV-I 0 W/m 4,2 C 7,6 C 8,6 km/h (2 Bft)
13.12.2014 18:00 7,7 C 77 % 1012,8 hPa 0,0 l/m 5,6 km/h (2 Bft) S-SW 0,00 h 0,025 mm 0,0 UV-I 0 W/m 3,9 C 7,3 C 9,6 km/h (2 Bft)
13.12.2014 19:00 7,1 C 77 % 1013,0 hPa 0,0 l/m 6,3 km/h (2 Bft) S 0,00 h 0,025 mm 0,0 UV-I 0 W/m 3,4 C 6,6 C 10,2 km/h (2 Bft)
13.12.2014 20:00 7,3 C 79 % 1013,1 hPa 0,0 l/m 7,2 km/h (2 Bft) S-SW 0,00 h 0,025 mm 0,0 UV-I 0 W/m 3,8 C 6,4 C 11,7 km/h (2 Bft)
13.12.2014 21:00 7,2 C 80 % 1013,5 hPa 0,0 l/m 6,1 km/h (2 Bft) S 0,00 h 0,025 mm 0,0 UV-I 0 W/m 4,0 C 6,8 C 10,3 km/h (2 Bft)
13.12.2014 22:00 6,1 C 87 % 1013,9 hPa 0,0 l/m 2,4 km/h (1 Bft) S 0,00 h 0,025 mm 0,0 UV-I 0 W/m 4,2 C 6,1 C 4,7 km/h (1 Bft)
13.12.2014 23:00 5,8 C 90 % 1014,0 hPa 0,0 l/m 4,0 km/h (1 Bft) S-SW 0,00 h 0,000 mm 0,0 UV-I 0 W/m 4,3 C 5,8 C 7,0 km/h (2 Bft)
14.12.2014 00:00 5,8 C 93 % 1013,9 hPa 0,4 l/m 4,8 km/h (1 Bft) S 0,00 h 0,000 mm 0,0 UV-I 0 W/m 4,8 C 5,8 C 8,0 km/h (2 Bft)
14.12.2014 01:00 5,8 C 95 % 1013,8 hPa 0,0 l/m 4,6 km/h (1 Bft) S-SW 0,00 h 0,000 mm 0,0 UV-I 0 W/m 5,0 C 5,8 C 8,0 km/h (2 Bft)
14.12.2014 02:00 5,7 C 95 % 1014,1 hPa 0,2 l/m 4,1 km/h (1 Bft) S-SW 0,00 h 0,000 mm 0,0 UV-I 0 W/m 5,0 C 5,7 C 7,3 km/h (2 Bft)
14.12.2014 03:00 5,7 C 96 % 1014,2 hPa 0,4 l/m 4,8 km/h (1 Bft) S 0,00 h 0,000 mm 0,0 UV-I 0 W/m 5,2 C 5,7 C 8,1 km/h (2 Bft)
14.12.2014 04:00 5,6 C 96 % 1014,1 hPa 0,2 l/m 4,9 km/h (1 Bft) S 0,00 h 0,000 mm 0,0 UV-I 0 W/m 5,0 C 5,4 C 8,0 km/h (2 Bft)
14.12.2014 05:00 5,2 C 96 % 1014,1 hPa 0,4 l/m 3,5 km/h (1 Bft) S 0,00 h 0,000 mm 0,0 UV-I 0 W/m 4,6 C 5,1 C 6,4 km/h (2 Bft)
14.12.2014 06:00 5,3 C 97 % 1014,3 hPa 0,0 l/m 4,4 km/h (1 Bft) S-SW 0,00 h 0,000 mm 0,0 UV-I 0 W/m 4,8 C 5,1 C 8,1 km/h (2 Bft)
14.12.2014 07:00 5,6 C 97 % 1014,7 hPa 0,2 l/m 5,4 km/h (2 Bft) SW 0,00 h 0,000 mm 0,0 UV-I 0 W/m 5,2 C 5,5 C 9,6 km/h (2 Bft)
14.12.2014 08:00 5,8 C 96 % 1015,3 hPa 0,0 l/m 7,6 km/h (2 Bft) S 0,00 h 0,000 mm 0,0 UV-I 11 W/m 5,2 C 4,6 C 12,4 km/h (2 Bft)
14.12.2014 09:00 6,1 C 97 % 1015,7 hPa 0,2 l/m 6,5 km/h (2 Bft) S 0,02 h 0,000 mm 0,0 UV-I 30 W/m 5,6 C 5,5 C 10,1 km/h (2 Bft)
14.12.2014 10:00 6,5 C 96 % 1015,9 hPa 0,2 l/m 7,8 km/h (2 Bft) S 0,00 h 0,025 mm 0,0 UV-I 24 W/m 5,9 C 5,2 C 12,2 km/h (2 Bft)
14.12.2014 11:00 6,6 C 96 % 1015,9 hPa 0,2 l/m 9,4 km/h (2 Bft) S 0,45 h 0,025 mm 0,0 UV-I 47 W/m 6,0 C 4,3 C 14,8 km/h (3 Bft)
14.12.2014 12:00 6,7 C 96 % 1015,9 hPa 0,0 l/m 7,5 km/h (2 Bft) S-SW 0,00 h 0,025 mm 0,0 UV-I 33 W/m 6,1 C 5,5 C 12,1 km/h (2 Bft)
14.12.2014 13:00 6,7 C 96 % 1015,7 hPa 0,2 l/m 5,5 km/h (2 Bft) S-SW 0,00 h 0,025 mm 0,0 UV-I 23 W/m 6,2 C 6,4 C 9,2 km/h (2 Bft)
14.12.2014 14:00 6,9 C 96 % 1015,9 hPa 0,2 l/m 6,2 km/h (2 Bft) S 0,00 h 0,000 mm 0,0 UV-I 12 W/m 6,4 C 6,2 C 9,9 km/h (2 Bft)
14.12.2014 15:00 6,8 C 96 % 1016,2 hPa 0,0 l/m 4,9 km/h (1 Bft) SW 0,00 h 0,000 mm 0,0 UV-I 7 W/m 6,2 C 6,7 C 8,0 km/h (2 Bft)
14.12.2014 16:00 6,7 C 96 % 1016,7 hPa 0,0 l/m 3,3 km/h (1 Bft) W 0,00 h 0,000 mm 0,0 UV-I 0 W/m 6,1 C 6,7 C 5,4 km/h (2 Bft)
14.12.2014 17:00 6,4 C 96 % 1016,9 hPa 0,0 l/m 1,1 km/h (1 Bft) W-SW 0,00 h 0,000 mm 0,0 UV-I 0 W/m 5,8 C 6,4 C 3,0 km/h (1 Bft)
14.12.2014 18:00 6,2 C 96 % 1017,1 hPa 0,0 l/m 0,7 km/h (0 Bft) S-SW 0,00 h 0,000 mm 0,0 UV-I 0 W/m 5,6 C 6,2 C 2,7 km/h (1 Bft)
14.12.2014 19:00 6,3 C 97 % 1017,4 hPa 0,0 l/m 1,4 km/h (1 Bft) S-SW 0,00 h 0,000 mm 0,0 UV-I 0 W/m 5,8 C 6,3 C 3,6 km/h (1 Bft)
14.12.2014 20:00 6,4 C 97 % 1017,3 hPa 0,0 l/m 1,9 km/h (1 Bft) S-SW 0,00 h 0,000 mm 0,0 UV-I 0 W/m 6,0 C 6,4 C 4,5 km/h (1 Bft)
14.12.2014 21:00 6,5 C 97 % 1017,4 hPa 0,2 l/m 5,4 km/h (2 Bft) S 0,00 h 0,002 mm 0,0 UV-I 0 W/m 6,0 C 6,4 C 8,7 km/h (2 Bft)
14.12.2014 22:00 6,4 C 97 % 1017,4 hPa 0,0 l/m 3,8 km/h (1 Bft) S 0,00 h 0,000 mm 0,0 UV-I 0 W/m 6,0 C 6,4 C 6,6 km/h (2 Bft)
14.12.2014 23:00 6,3 C 97 % 1017,4 hPa 0,0 l/m 0,1 km/h (0 Bft) N 0,00 h 0,000 mm 0,0 UV-I 0 W/m 5,9 C 6,3 C 0,2 km/h (0 Bft)
Min-Datum _ 08.12.14 13.12.14 12.12.14 - 08.12.14 - - - - - 08.12.14 10.12.14 08.12.14
_ Min-Zeit 21:41 12:45 18:56 - 02:47 - - - - - 21:41 11:16 07:41
Minimum _ -2,8 C 69 % 1005,7 hPa - 0,0 km/h (0 Bft) - - - - - -3,6 C -12,3 C 0,0 km/h (0 Bft)
Max-Datum _ 13.12.14 10.12.14 09.12.14 11.12.14 12.12.14 - 12.12.14 13.12.14 12.12.14 08.12.14 14.12.14 13.12.14 12.12.14
_ Max-Zeit 15:22 22:28 21:28 20:05 09:47 - 11:54 12:00 10:54 12:41 14:19 15:28 13:43
Maximum _ 9,4 C 98 % 1032,3 hPa 2,2 l/m 29,0 km/h
S (5 Bft)
- 0,03 h 0,102 mm 0,7 UV-I 343 W/m 6,5 C 9,4 C 45,1 km/h
SW (6 Bft)
Durchschnitt _ 2,7 C 92 % 1017,4 hPa #14,0 l/m 6,8 km/h (2 Bft) S #17:31 h #1,991 mm 0,6 UV-I 48 W/m 1,4 C 1,0 C 11,0 km/h (2 Bft)